Date String (YYYY-MM-DD hh:mm:ss) UTC,Instrument flags,absolute air pressure of the measurement (hPa),sample flow rate (lpm),inlet stack bypass flow (lpm),air temperature of the measurement (°C),ambient temperature measured by the external sensor (°C),aerosol sample conditioner tube jacket temperature (°C),OPC LED temperature (°C),internal box temperature (°C),relative humidity of the measurement (%),span deviation,mass concentration of particles derived from Lorenz-Mie calculation of OPC scattering (μg/m³),mass concentration of particles derived from Lorenz-Mie calculation of OPC scattering (μg/m³),mass concentration of particles derived from Lorenz-Mie calculation of OPC scattering (μg/m³)
DateTimeUTC,F1_M11,P_M11,Q1_M11,Q2_M11,T1_M11,T2_M11,T3_M11,T4_M11,T5_M11,U1_M11,ZSPAN_M11,X0_M11,X2_M11,X1_M11
2023-12-29 07:00:00,SystemResetWarning,0834.2,4.99,000.00,020.0,018.8,000.0,028.4,021.3,8.2,0000.0,0001.69,0001.11,0000.94
2023-12-29 07:01:00,SystemResetWarning,0834.2,4.99,000.00,020.0,018.7,000.0,028.4,021.3,8.2,0000.0,0001.69,0001.10,0000.94
2023-12-29 07:02:00,SystemResetWarning,0834.2,5.00,000.00,020.0,018.7,000.0,028.4,021.3,8.1,0000.0,0001.74,0001.12,0000.94
2023-12-29 07:03:00,SystemResetWarning,0834.2,5.00,000.00,019.9,018.7,000.0,028.4,021.2,8.1,0000.0,0001.75,0001.12,0000.93
2023-12-29 07:04:00,SystemResetWarning,0834.3,5.00,000.00,019.9,018.7,000.0,028.3,021.2,8.2,0000.0,0001.79,0001.12,0000.92
2023-12-29 07:05:00,SystemResetWarning,0834.4,4.99,000.00,019.9,018.7,000.0,028.3,021.2,8.2,0000.0,0001.88,0001.15,0000.92
2023-12-29 07:06:00,SystemResetWarning,0834.5,5.00,000.00,019.9,018.7,000.0,028.3,021.2,8.1,0000.0,0001.87,0001.15,0000.92
2023-12-29 07:07:00,SystemResetWarning,0834.3,5.00,000.00,019.9,018.7,000.0,028.3,021.2,8.1,0000.0,0001.87,0001.14,0000.92
2023-12-29 07:08:00,SystemResetWarning,0834.3,5.00,000.00,019.9,018.7,000.0,028.3,021.2,8.1,0000.0,0001.89,0001.13,0000.91
2023-12-29 07:09:00,SystemResetWarning,0834.5,5.00,000.00,019.9,018.7,000.0,028.3,021.2,8.0,0000.0,0001.83,0001.12,0000.90
2023-12-29 07:10:00,SystemResetWarning,0834.3,5.00,000.00,019.9,018.7,000.0,028.3,021.2,8.0,0000.0,0001.64,0001.08,0000.88
2023-12-29 07:11:00,SystemResetWarning,0834.3,5.00,000.00,019.9,018.7,000.0,028.3,021.2,8.1,0000.0,0001.77,0001.06,0000.88
2023-12-29 07:12:00,SystemResetWarning,0834.4,5.00,000.00,019.9,018.7,000.0,028.3,021.2,8.1,0000.0,0001.72,0001.04,0000.87
2023-12-29 07:13:00,SystemResetWarning,0834.3,4.99,000.00,019.9,018.7,000.0,028.3,021.1,8.0,0000.0,0001.67,0001.02,0000.86
2023-12-29 07:14:00,SystemResetWarning,0834.4,5.00,000.00,019.8,018.6,000.0,028.3,021.2,8.0,0000.0,0001.62,0001.00,0000.86
2023-12-29 07:15:00,SystemResetWarning,0834.4,5.00,000.00,019.8,018.6,000.0,028.2,021.2,8.0,0000.0,0001.56,0000.98,0000.84
2023-12-29 07:16:00,SystemResetWarning,0834.4,5.00,000.00,019.8,018.6,000.0,028.2,021.1,8.0,0000.0,0001.46,0000.94,0000.82
2023-12-29 07:17:00,SystemResetWarning,0834.4,5.00,000.00,019.8,018.6,000.0,028.2,021.1,8.0,0000.0,0001.45,0000.93,0000.82
2023-12-29 07:18:00,SystemResetWarning,0834.4,5.00,000.00,019.8,018.6,000.0,028.2,021.1,8.0,0000.0,0001.45,0000.91,0000.81
2023-12-29 07:19:00,SystemResetWarning,0834.4,5.00,000.00,019.8,018.6,000.0,028.2,021.1,8.1,0000.0,0001.41,0000.90,0000.81
2023-12-29 07:20:00,SystemResetWarning,0834.4,5.00,000.00,019.8,018.6,000.0,028.2,021.1,8.1,0000.0,0001.39,0000.90,0000.81
2023-12-29 07:21:00,SystemResetWarning,0834.4,5.01,000.00,019.8,018.6,000.0,028.2,021.1,8.1,0000.0,0001.40,0000.91,0000.82
2023-12-29 07:22:00,SystemResetWarning,0834.3,5.00,000.00,019.8,018.6,000.0,028.2,021.1,8.1,0000.0,0001.61,0000.90,0000.80
2023-12-29 07:23:00,SystemResetWarning,0834.3,5.00,000.00,019.8,018.6,000.0,028.2,021.1,8.0,0000.0,0002.20,0000.89,0000.79
2023-12-29 07:24:00,SystemResetWarning,0834.3,5.00,000.00,019.8,018.6,000.0,028.2,021.1,8.1,0000.0,0002.21,0000.89,0000.78
2023-12-29 07:25:00,SystemResetWarning,0834.3,5.00,000.00,019.7,018.6,000.0,028.2,021.1,8.1,0000.0,0002.21,0000.88,0000.78
2023-12-29 07:26:00,SystemResetWarning,0834.3,5.00,000.00,019.7,018.5,000.0,028.2,021.1,8.1,0000.0,0002.23,0000.89,0000.78
2023-12-29 07:27:00,SystemResetWarning,0834.3,5.00,000.00,019.7,018.5,000.0,028.1,021.1,8.1,0000.0,0002.25,0000.90,0000.79
2023-12-29 07:28:00,SystemResetWarning,0834.4,5.00,000.00,019.7,018.5,000.0,028.1,021.0,8.0,0000.0,0002.23,0000.89,0000.78
2023-12-29 07:29:00,SystemResetWarning,0834.4,5.00,000.00,019.7,018.5,000.0,028.1,021.0,8.0,0000.0,0002.20,0000.89,0000.78
2023-12-29 07:30:00,SystemResetWarning,0834.3,5.00,000.00,019.7,018.5,000.0,028.1,021.0,8.0,0000.0,0002.20,0000.88,0000.77
2023-12-29 07:31:00,SystemResetWarning,0834.3,4.99,000.00,019.7,018.5,000.0,028.1,021.0,8.0,0000.0,0002.18,0000.87,0000.75
2023-12-29 07:32:00,SystemResetWarning,0834.3,5.00,000.00,019.7,018.5,000.0,028.1,021.0,8.0,0000.0,0002.15,0000.84,0000.75
2023-12-29 07:33:00,SystemResetWarning,0834.3,5.01,000.00,019.7,018.5,000.0,028.1,021.0,8.0,0000.0,0001.76,0000.83,0000.74
2023-12-29 07:34:00,SystemResetWarning,0834.3,5.00,000.00,019.7,018.5,000.0,028.1,021.0,8.0,0000.0,0001.15,0000.82,0000.74
2023-12-29 07:35:00,SystemResetWarning,0834.6,5.00,000.00,019.7,018.5,000.0,028.1,021.0,8.0,0000.0,0001.10,0000.80,0000.73
2023-12-29 07:36:00,SystemResetWarning,0834.4,5.00,000.00,019.6,018.5,000.0,028.1,021.0,8.0,0000.0,0001.07,0000.79,0000.72
2023-12-29 07:37:00,SystemResetWarning,0834.3,5.00,000.00,019.6,018.5,000.0,028.1,020.9,8.0,0000.0,0001.09,0000.78,0000.71
2023-12-29 07:38:00,SystemResetWarning,0834.3,5.00,000.00,019.6,018.5,000.0,028.0,020.9,8.0,0000.0,0001.17,0000.77,0000.70
2023-12-29 07:39:00,SystemResetWarning,0834.5,5.00,000.00,019.6,018.5,000.0,028.0,020.9,7.9,0000.0,0001.19,0000.77,0000.70
2023-12-29 07:40:00,SystemResetWarning,0834.5,5.00,000.00,019.6,018.5,000.0,028.0,020.9,7.9,0000.0,0001.18,0000.76,0000.69
2023-12-29 07:41:00,SystemResetWarning,0834.3,5.00,000.00,019.6,018.5,000.0,028.0,020.9,7.9,0000.0,0001.14,0000.74,0000.68
2023-12-29 07:42:00,SystemResetWarning,0834.6,4.99,000.00,019.6,018.5,000.0,028.0,020.9,7.9,0000.0,0001.12,0000.73,0000.67
2023-12-29 07:43:00,SystemResetWarning,0834.6,5.01,000.00,019.6,018.5,000.0,028.0,020.9,7.8,0000.0,0001.23,0000.73,0000.65
2023-12-29 07:44:00,SystemResetWarning,0834.8,5.00,000.00,019.6,018.5,000.0,028.0,020.9,7.8,0000.0,0001.17,0000.73,0000.65
2023-12-29 07:45:00,SystemResetWarning,0834.3,5.00,000.00,019.6,018.4,000.0,028.0,020.9,7.8,0000.0,0001.15,0000.73,0000.65
2023-12-29 07:46:00,SystemResetWarning,0834.5,4.99,000.00,019.6,018.4,000.0,028.0,020.9,7.8,0000.0,0001.15,0000.73,0000.65
2023-12-29 07:47:00,SystemResetWarning,0834.6,4.99,000.00,019.6,018.4,000.0,028.0,020.9,7.9,0000.0,0001.14,0000.71,0000.64
2023-12-29 07:48:00,SystemResetWarning,0834.8,4.99,000.00,019.6,018.4,000.0,028.0,020.8,7.9,0000.0,0001.10,0000.69,0000.62
2023-12-29 07:49:00,SystemResetWarning,0834.6,5.00,000.00,019.5,018.4,000.0,028.0,020.8,7.9,0000.0,0000.97,0000.69,0000.62
2023-12-29 07:50:00,SystemResetWarning,0834.6,4.99,000.00,019.5,018.4,000.0,028.0,020.8,8.0,0000.0,0000.95,0000.68,0000.61
2023-12-29 07:51:00,SystemResetWarning,0834.3,4.99,000.00,019.5,018.4,000.0,027.9,020.8,7.9,0000.0,0000.96,0000.69,0000.62
2023-12-29 07:52:00,SystemResetWarning,0834.3,5.00,000.00,019.5,018.3,000.0,027.9,020.8,7.9,0000.0,0000.98,0000.70,0000.62
2023-12-29 07:53:00,SystemResetWarning,0834.3,5.00,000.00,019.5,018.4,000.0,027.9,020.9,7.9,0000.0,0001.00,0000.71,0000.63
2023-12-29 07:54:00,SystemResetWarning,0834.3,5.01,000.00,019.5,018.4,000.0,027.9,020.8,8.0,0000.0,0000.87,0000.69,0000.63
2023-12-29 07:55:00,SystemResetWarning,0834.4,5.00,000.00,019.5,018.4,000.0,027.9,020.8,8.0,0000.0,0000.91,0000.68,0000.62
2023-12-29 07:56:00,SystemResetWarning,0834.3,4.99,000.00,019.5,018.3,000.0,027.9,020.8,8.0,0000.0,0000.95,0000.68,0000.61
2023-12-29 07:57:00,SystemResetWarning,0834.3,5.00,000.00,019.5,018.3,000.0,027.9,020.8,8.0,0000.0,0000.99,0000.69,0000.61
2023-12-29 07:58:00,SystemResetWarning,0834.3,4.99,000.00,019.5,018.3,000.0,027.9,020.8,7.9,0000.0,0001.04,0000.71,0000.62
2023-12-29 07:59:00,SystemResetWarning,0834.3,5.00,000.00,019.5,018.4,000.0,027.9,020.8,7.9,0000.0,0001.05,0000.72,0000.62
